+07,Max TemperatureF,Mean TemperatureF,Min TemperatureF,Max Dew PointF,MeanDew PointF,Min DewpointF,Max Humidity, Mean Humidity, Min Humidity, Max Sea Level PressureIn, Mean Sea Level PressureIn, Min Sea Level PressureIn, Max VisibilityMiles, Mean VisibilityMiles, Min VisibilityMiles, Max Wind SpeedMPH, Mean Wind SpeedMPH, Max Gust SpeedMPH,PrecipitationIn, CloudCover, Events, WindDirDegrees
2011-10-1,89,84,78,79,74,72,89,76,55,29.80,29.72,29.65,6,6,6,12,5,,0.00,6,,222
2011-10-2,91,84,78,75,72,70,79,65,49,29.80,29.72,29.65,6,6,6,12,7,,0.00,6,,246
2011-10-3,87,82,77,77,73,72,89,74,58,29.80,29.73,29.65,6,6,6,13,6,,0.00,6,Rain,330
2011-10-4,87,79,71,77,72,68,94,77,55,29.83,29.76,29.68,6,6,4,10,5,,0.00,6,Rain,108
2011-10-5,91,83,75,77,73,70,94,75,49,29.86,29.79,29.71,6,6,2,16,5,,0.00,6,Rain-Thunderstorm,276
2011-10-6,86,82,77,79,76,73,94,84,66,29.89,29.82,29.74,6,6,6,9,4,,0.00,6,Rain,43
2011-10-7,84,81,78,75,74,72,89,79,70,29.89,29.82,29.74,6,6,6,54,6,,0.00,6,Rain,102
2011-10-8,86,80,75,77,74,72,94,83,66,29.92,29.82,29.74,6,6,3,12,4,,0.00,6,Rain-Thunderstorm,175
2011-10-9,89,81,73,79,75,72,94,81,62,29.89,29.81,29.71,6,6,2,21,4,,0.00,6,Rain-Thunderstorm,303
2011-10-10,86,80,75,79,76,72,94,91,70,29.89,29.83,29.77,6,6,1,12,3,,0.00,6,Rain-Thunderstorm,342
2011-10-11,89,82,75,79,75,72,94,81,55,29.89,29.82,29.74,6,6,2,48,4,,0.00,5,Rain-Thunderstorm,58
2011-10-12,89,84,78,79,76,73,94,83,59,29.86,29.80,29.71,6,6,5,12,3,,0.00,5,Rain-Thunderstorm,113
2011-10-13,87,82,77,79,76,73,94,82,66,29.86,29.78,29.68,6,6,6,9,4,,0.00,6,,153
2011-10-14,89,82,75,79,75,72,94,85,59,29.86,29.78,29.71,6,6,5,17,4,,0.00,6,Rain-Thunderstorm,151
2011-10-15,91,84,77,79,75,72,94,81,55,29.86,29.78,29.68,6,6,5,16,4,,0.00,6,Rain-Thunderstorm,179
2011-10-16,86,80,75,77,74,70,94,79,66,29.83,29.79,29.71,6,6,6,14,5,,0.00,6,Rain,3
2011-10-17,84,81,78,79,75,72,100,82,70,29.89,29.83,29.77,6,6,6,14,5,,0.00,6,Rain,14
2011-10-18,87,82,78,75,73,72,89,74,58,29.95,29.87,29.80,6,6,5,12,5,,0.00,6,,42
2011-10-19,91,84,78,75,72,68,84,67,49,29.89,29.82,29.74,6,6,6,9,6,,0.00,5,,10
2011-10-20,87,82,78,75,73,72,89,74,58,29.89,29.82,29.77,6,6,5,10,4,,0.00,6,Rain,43
2011-10-21,89,84,78,79,75,72,89,76,55,29.89,29.83,29.74,6,6,4,9,3,,0.00,6,Rain,90
2011-10-22,91,84,78,79,74,70,94,71,49,29.89,29.81,29.74,6,6,6,13,3,,0.00,5,,100
2011-10-23,91,86,80,79,74,70,89,70,49,29.89,29.82,29.74,6,6,5,12,4,,0.00,4,,26
2011-10-24,93,86,80,77,72,63,84,64,36,29.86,29.80,29.74,6,6,4,10,4,,0.00,3,,82
2011-10-25,93,86,80,79,74,70,89,68,49,29.89,29.80,29.74,6,6,5,12,4,,0.00,5,,65
2011-10-26,91,86,80,75,74,72,84,69,55,29.89,29.83,29.77,6,6,6,10,4,,0.00,4,,19
2011-10-27,91,86,82,75,74,72,79,67,52,29.89,29.83,29.77,6,6,6,10,5,,0.00,4,,37
2011-10-28,89,83,77,75,73,70,89,71,55,29.92,29.84,29.77,6,6,4,16,5,,0.00,5,Rain-Thunderstorm,58
2011-10-29,84,82,80,77,77,73,89,84,70,29.86,29.84,29.80,6,6,6,7,2,,0.00,5,,36
2011-10-30,,,,,,,,,,,,,,,,,,,0.00,,,-1
2011-10-31,,,,,,,,,,,,,,,,,,,0.00,,,-1